Location: Pl�tzky
(52.0521°N, 11.8020°E)
Time: 14:30:00
(UTC+00:00)

USA 229 - Pass Details

Date: 23 February 2020
Orbit: 986 x 1226 km, 63.4° (Epoch: 26 March)

Event Time Altitude Azimuth Distance (km) Brightness Sun altitude
Rises 18:25:42 0° 232° (SW) 3,725 7.3 -16.9°
Reaches altitude 10° 18:28:14 10° 234° (SW) 2,798 6.6 -17.3°
Maximum altitude 18:34:50 74° 319° (NW) 1,097 3.8 -18.3°
Enters shadow 18:41:43 11° 45° (NE) 2,923 5.7 -19.3°
